Preview of NWS' New Version of Forecast
This preview is not operational and should not be used for support decisions.
Latest weather observations around

Boyd Deep Canyon Reserve (UCNRS) (UCDE)

Using English Units (Switch to International System of Units)
Date/ Time (PDT) Wind (mph) Vis. (mi) Weather Sky Cond. Temp (°F) Rel. Humidity Wind Chill (°F) Heat Index (°F) Pressure Precip. (in)
Air Dwpt 6 hour Altimeter (inHg) Sea level (inHg) 1 hr 3 hr 6 hr
Max Min
Jun 21 10:20 N 6   Clear   89 50     26%   86 29.92        
Jun 21 10:10 N 5   Clear   89 51     27%   86 29.92        
Jun 21 10:00 N 5   Clear   89 50     27%   86 29.92        
Jun 21 09:50 N 5   Clear   88 51     28%   85 29.92        
Jun 21 09:40 N 5   Clear   88 50     27%   85 29.92        
Jun 21 09:30 N 6   Clear   87 50     28%   84 29.92        
Jun 21 09:20 N 6   Clear   87 50     28%   84 29.92        
Jun 21 09:10 N 5   Clear   87 49     28%   84 29.92        
Jun 21 09:00 N 4   Clear   86 49     28%   84 29.92        
Jun 21 08:50 N 5   Clear   86 50     29%   84 29.92        
Jun 21 08:40 N 4   Clear   86 49     28%   84 29.92        
Jun 21 08:30 N 3   Clear   86 48     27%   84 29.92        
Jun 21 08:20 NNE 1   Clear   86 48     27%   84 29.92        
Jun 21 08:10 NNE 2   Clear   85 49     29%   83 29.92        
Jun 21 08:00 N 1   Clear   85 50     30%   83 29.92        
Jun 21 07:50 NNE 1   Clear   84 49     30%   82 29.92        
Jun 21 07:40 N 2   Clear   83 50     32%   81 29.92        
Jun 21 07:30 NNE 2   Clear   83 50     32%   81 29.92        
Jun 21 07:20 NNE 2   Clear   82 50     33%   81 29.92        
Jun 21 07:10 NNE 2   Clear   81 50     34%   80 29.91        
Jun 21 07:00 N 2   Clear   81 50     34%   80 29.91        
Jun 21 06:50 E 1   Clear   81 50     33%   80 29.91        
Jun 21 06:40 NNE 2   Clear   81 50     34%   80 29.91        
Jun 21 06:30 NE 2   Clear   80 48     33%   79 29.9        
Jun 21 06:20 ENE 2   Clear   79 47     33%   78 29.9        
Jun 21 06:10 NE 1   Clear   78 45     31%   77 29.9        
Jun 21 06:00 Calm   Clear   78 46     32%   77 29.89        
Jun 21 05:50 SSW 1   Clear   78 45     31%   77 29.89        
Jun 21 05:40 Calm   Clear   78 46     32%   77 29.89        
Jun 21 05:30 SW 1   Clear   78 46     32%   77 29.89        
Jun 21 05:20 Calm   Clear   79 46     32%   78 29.88        
Jun 21 05:10 SSW 1   Clear   78 47     33%   77 29.88        
Jun 21 05:00 Calm   Clear   79 47     32%   79 29.88        
Jun 21 04:50 E 1   Clear   80 47     32%   79 29.88        
Jun 21 04:40 SSW 2   Clear   80 48     33%   79 29.88        
Jun 21 04:30 SSW 1   Clear   80 48     33%   79 29.88        
Jun 21 04:20 Calm   Clear   80 49     34%   79 29.88        
Jun 21 04:10 ENE 1   Clear   80 50     35%   79 29.88        
Jun 21 04:00 Calm   Clear   81 50     34%   80 29.87        
Jun 21 03:50 NE 1   Clear   81 50     35%   80 29.87        
Jun 21 03:40 Calm   Clear   80 51     36%   80 29.87        
Jun 21 03:30 ENE 1   Clear   82 50     34%   81 29.87        
Jun 21 03:20 ENE 3   Clear   81 51     35%   80 29.87        
Jun 21 03:10 NE 1   Clear   81 51     35%   80 29.86        
Jun 21 03:00 ENE 2   Clear   81 51     35%   80 29.86        
Notice The following observation data may not be complete
Jun 21 02:50     Clear            %              
Jun 21 02:40 ENE 2   Clear   82 50     33%   81 29.86        
Jun 21 02:30 NE 3   Clear   83 46     27%   81 29.86        
Jun 21 02:20 N 2   Clear   86 38     18%   83 29.86        
Jun 21 02:10 S 1   Clear   87 35     16%   83 29.86        
Jun 21 02:00 S 1   Clear   87 36     16%   84 29.86        
Jun 21 01:50 SSE 1   Clear   87 37     17%   83 29.86        
Jun 21 01:40 SSW 2   Clear   84 43     24%   82 29.87        
Jun 21 01:30 ENE 1   Clear   84 47     28%   82 29.87        
Jun 21 01:20 NE 1   Clear   84 47     28%   82 29.87        
Jun 21 01:10 NE 2   Clear   85 47     27%   82 29.87        
Jun 21 01:00 ESE 2   Clear   85 45     24%   83 29.87        
Jun 21 00:50 S 1   Clear   85 46     26%   83 29.87        
Jun 21 00:40 ENE 2   Clear   85 47     27%   83 29.87        
Jun 21 00:30 S 1   Clear   86 48     27%   83 29.87        
Jun 21 00:20 SSW 2   Clear   85 48     28%   83 29.87        
Jun 21 00:10 Calm   Clear   85 48     28%   83 29.88        
Jun 21 00:00 ENE 1   Clear   86 49     28%   83 29.88        
Jun 20 23:50 NE 2   Clear   87 49     27%   84 29.88        
Jun 20 23:40 ENE 3   Clear   87 47     25%   84 29.88        
Jun 20 23:30 N 2   Clear   89 44     21%   85 29.88        
Jun 20 23:20 WNW 1   Clear   88 42     20%   85 29.88        
Jun 20 23:10 Calm   Clear   89 41     19%   85 29.87        
Jun 20 23:00 NE 2   Clear   89 41     19%   85 29.87        
Jun 20 22:50 NE 1   Clear   90 41     18%   86 29.87        
Jun 20 22:40 NE 1   Clear   91 40     17%   87 29.87        
Jun 20 22:30 Calm   Clear   91 40     17%   87 29.87        
Jun 20 22:20 SW 1   Clear   92 41     17%   88 29.86        
Jun 20 22:10 ENE 4   Clear   95 38     14%   90 29.86        
Jun 20 22:00 SE 3   Clear   96 39     14%   91 29.86        
Jun 20 21:50 SE 1   Clear   95 39     14%   91 29.85        
Jun 20 21:40 ESE 2   Clear   96 39     14%   91 29.85        
Jun 20 21:30 SE 3   Clear   96 39     14%   92 29.85        
Jun 20 21:20 E 3   Clear   97 40     14%   92 29.85        
Jun 20 21:10 ESE 5   Clear   97 40     14%   92 29.84        
Jun 20 21:00 E 4   Clear   97 40     14%   92 29.84        
Jun 20 20:50 ESE 1   Clear   95 39     14%   91 29.84        
Jun 20 20:40 Calm   Clear   96 39     14%   91 29.83        
Jun 20 20:30 WSW 2   Clear   97 38     13%   92 29.83        
Jun 20 20:20 E 3   Clear   97 38     13%   93 29.83        
Jun 20 20:10 ENE 5   Clear   98 39     13%   93 29.82        
Jun 20 20:00 E 4   Clear   98 39     13%   93 29.82        
Jun 20 19:40 E 6   Clear   98 39     13%   94 29.82        
Jun 20 19:30 E 6   Clear   98 39     13%   94 29.82        
Jun 20 19:20 ENE 8   Clear   98 39     13%   94 29.82        
Jun 20 19:10 E 8   Clear   99 39     13%   94 29.81        
Jun 20 19:00 E 8   Clear   99 40     13%   95 29.81        
Notice The following observation data may not be complete
Jun 20 18:50     Clear            %              
Jun 20 18:40 ENE 6   Clear   101 41     13%   96 29.81        
Jun 20 18:30 E 7   Clear   101 41     13%   96 29.81        
Jun 20 18:20 ENE 8   Clear   101 41     13%   97 29.81        
Jun 20 18:10 ENE 7   Clear   102 42     13%   97 29.81        
Jun 20 18:00 ENE 7   Clear   102 42     13%   97 29.81        
Jun 20 17:50 ENE 7   Clear   102 40     12%   97 29.8        
Jun 20 17:40 E 8   Clear   101 39     12%   96 29.81        
Jun 20 17:30 ENE 7   Clear   102 40     12%   97 29.81        
Jun 20 17:20 ENE 8   Clear   102 40     12%   97 29.81        
Jun 20 17:10 ENE 8   Clear   102 42     13%   98 29.81        
Jun 20 17:00 ENE 7   Clear   102 44     14%   98 29.81        
Notice The following observation data may not be complete
Jun 20 16:50     Clear            %              
Jun 20 16:40 ENE 6   Clear   102 44     14%   98 29.82        
Jun 20 16:30 ENE 7   Clear   102 46     15%   98 29.82        
Jun 20 16:20 ENE 7   Clear   102 46     15%   98 29.82        
Jun 20 16:10 ENE 6   Clear   102 46     15%   98 29.82        
Jun 20 16:00 ENE 7   Clear   102 47     16%   98 29.83        
Jun 20 15:50 NE 6   Clear   102 46     15%   98 29.83        
Jun 20 15:40 ENE 6   Clear   102 45     15%   98 29.83        
Jun 20 15:30 ENE 5   Clear   102 44     14%   98 29.84        
Jun 20 15:20 ENE 5   Clear   102 44     14%   98 29.84        
Jun 20 15:10 NE 5   Clear   102 46     15%   98 29.84        
Jun 20 15:00 NE 5   Clear   101 45     15%   97 29.85        
Notice The following observation data may not be complete
Jun 20 14:50     Clear            %              
Jun 20 14:40 ENE 6   Clear   101 48     17%   98 29.85        
Jun 20 14:30 NE 8   Clear   101 48     17%   97 29.85        
Jun 20 14:20 ENE 7   Clear   101 49     18%   98 29.85        
Jun 20 14:10 ENE 8   Clear   101 48     17%   97 29.86        
Jun 20 14:00 NE 6   Clear   100 49     18%   97 29.86        
Jun 20 13:50 NE 4   Clear   99 49     19%   95 29.87        
Jun 20 13:40 E 8   Clear   98 49     19%   95 29.87        
Jun 20 13:30 E 5   Clear   99 48     18%   96 29.87        
Jun 20 13:20 SE 5   Clear   98 47     18%   95 29.87        
Jun 20 13:10 E 7   Clear   98 47     18%   95 29.88        
Jun 20 13:00 E 5   Clear   98 47     18%   94 29.88        
Jun 20 12:50 E 5   Clear   98 47     18%   94 29.88        
Jun 20 12:40 E 6   Clear   97 48     19%   94 29.89        
Jun 20 12:30 ENE 6   Clear   97 49     20%   94 29.89        
Jun 20 12:20 E 7   Clear   96 50     21%   93 29.89        
Jun 20 12:10 ENE 7   Clear   96 51     22%   93 29.89        
Jun 20 12:00 ENE 7   Clear   95 52     23%   92 29.89        
Jun 20 11:40 ENE 6   Clear   95 52     24%   92 29.89        
Jun 20 11:30 ENE 6   Clear   94 52     24%   92 29.89        
Jun 20 11:20 NNE 7   Clear   94 52     24%   92 29.9        
Jun 20 11:10 N 5   Clear   94 51     24%   91 29.9        
Jun 20 11:00 N 7   Clear   92 50     24%   89 29.9        
Jun 20 10:50 N 6   Clear   92 49     23%   89 29.9        
Jun 20 10:40 N 6   Clear   92 49     23%   89 29.9        
Jun 20 10:30 N 7   Clear   92 49     23%   88 29.9        
Jun 20 10:20 N 6   Clear   91 47     22%   88 29.9        
Jun 20 10:10 N 6   Clear   92 45     20%   88 29.9        
Jun 20 10:00 N 5   Clear   91 44     20%   87 29.9        
Jun 20 09:50 N 5   Clear   91 44     20%   87 29.9        
Jun 20 09:40 N 6   Clear   90 45     21%   86 29.91        
Jun 20 09:30 N 4   Clear   90 44     20%   86 29.91        
Jun 20 09:20 N 4   Clear   89 43     20%   86 29.91        
Jun 20 09:10 N 4   Clear   89 43     20%   86 29.91        
Jun 20 09:00 N 4   Clear   89 44     21%   85 29.91        
Jun 20 08:50 N 3   Clear   89 44     21%   85 29.91        
Jun 20 08:40 N 3   Clear   88 44     22%   85 29.91        
Jun 20 08:30 NNE 3   Clear   87 45     23%   84 29.91        
Jun 20 08:20 N 3   Clear   88 44     22%   84 29.91        
Jun 20 08:10 N 3   Clear   87 45     23%   84 29.91        
Jun 20 08:00 NNW 4   Clear   86 44     23%   83 29.91        
Jun 20 07:50 N 7   Clear   85 44     24%   83 29.9        
Jun 20 07:40 N 6   Clear   87 41     20%   84 29.9        
Jun 20 07:30 N 2   Clear   89 40     18%   85 29.89        
Jun 20 07:20 NNW 1   Clear   89 40     18%   85 29.89        
Jun 20 07:10 NW 1   Clear   87 41     20%   84 29.89        
Jun 20 07:00 S 2   Clear   86 42     22%   83 29.89        
Notice The following observation data may not be complete
Jun 20 06:50 Calm   Clear     44      %     29.89        
Jun 20 06:40 Calm   Clear   83 44     26%   81 29.88        
Jun 20 06:30 ENE 1   Clear   81 44     28%   80 29.88        
Jun 20 06:20 Calm   Clear   78 44     30%   77 29.88        
Jun 20 06:10 SSW 1   Clear   78 44     30%   77 29.87        
Jun 20 06:00 WSW 1   Clear   78 44     30%   77 29.87        
Jun 20 05:50 NE 1   Clear   79 44     29%   78 29.87        
Jun 20 05:40 ENE 2   Clear   79 44     29%   78 29.86        
Jun 20 05:30 NE 2   Clear   79 39     24%   78 29.86        
Notice The following observation data may not be complete
Jun 20 05:20 NNE 3   Clear     31      %     29.85        
Notice The following observation data may not be complete
Jun 20 05:10 S 3   Clear     29      %     29.85        
Notice The following observation data may not be complete
Jun 20 05:00 SSW 5   Clear     30      %     29.85        
Jun 20 04:50 SSW 4   Clear   86        %     29.85        
Jun 20 04:40 S 4   Clear   86 29     13%   82 29.85        
Jun 20 04:30 S 5   Clear   86 29     13%   82 29.85        
Notice The following observation data may not be complete
Jun 20 04:20 SSW 6   Clear     30      %     29.85        
Notice The following observation data may not be complete
Jun 20 04:10 SSW 7   Clear     29      %     29.85        
Jun 20 04:00 SSW 7   Clear   85 28     13%   82 29.85        
Jun 20 03:50 SSW 3   Clear   78 44     30%   76 29.85        
Jun 20 03:40 Calm   Clear   76 51     42%   75 29.85        
Jun 20 03:30 NE 2   Clear   76 51     41%   75 29.85        
Jun 20 03:20 NE 3   Clear   78 45     31%   77 29.85        
Jun 20 03:10 N 2   Clear   81 39     22%   79 29.85        
Jun 20 03:00 SSW 2   Clear   81 40     23%   80 29.85        
Jun 20 02:50 SSW 1   Clear   81 41     24%   80 29.85        
Jun 20 02:40 Calm   Clear   79 46     32%   78 29.85        
Jun 20 02:30 Calm   Clear   77 50     38%   76 29.85        
Jun 20 02:20 Calm   Clear   76 50     40%   76 29.85        
Jun 20 02:10 Calm   Clear   76 52     42%   76 29.86        
Jun 20 02:00 ENE 1   Clear   77 51     41%   76 29.86        
Jun 20 01:50 NNE 2   Clear   78 50     38%   77 29.86        
Jun 20 01:40 Calm   Clear   80 49     34%   79 29.86        
Jun 20 01:30 SSW 1   Clear   80 49     34%   79 29.86        
Jun 20 01:20 S 2   Clear   80 49     35%   79 29.86        
Jun 20 01:10 SSW 1   Clear   80 50     35%   79 29.86        
Jun 20 01:00 ENE 1   Clear   80 50     35%   79 29.86        
Jun 20 00:50 ENE 1   Clear   80 50     35%   79 29.86        
Jun 20 00:40 Calm   Clear   80 49     33%   80 29.86        
Jun 20 00:30 Calm   Clear   81 49     33%   80 29.86        
Jun 20 00:20 E 1   Clear   82 50     33%   80 29.87        
Jun 20 00:10 ESE 2   Clear   81 50     34%   80 29.87        
Jun 20 00:00 ENE 3   Clear   82 50     33%   81 29.87        
Jun 19 23:50 NE 4   Clear   83 50     32%   81 29.87        
Jun 19 23:40 ENE 4   Clear   83 49     30%   82 29.87        
Jun 19 23:30 NE 2   Clear   85 45     24%   83 29.87        
Jun 19 23:20 SSE 3   Clear   88 40     19%   84 29.87        
Jun 19 23:10 SSW 5   Clear   89        %     29.87        
Jun 19 23:00 SW 7   Clear   90 32     13%   86 29.87        
Jun 19 22:50 SSW 6   Clear   90 34     14%   86 29.87        
Jun 19 22:40 SSW 6   Clear   89 34     14%   85 29.87        
Jun 19 22:30 SSE 1   Clear   89 37     16%   85 29.87        
Jun 19 22:20 E 2   Clear   89 38     17%   85 29.87        
Jun 19 22:10 NNW 3   Clear   89 40     18%   85 29.87        
Jun 19 22:00 NNW 3   Clear   89 41     19%   85 29.87        
Jun 19 21:50 ENE 1   Clear   89 42     19%   86 29.86        
Jun 19 21:40 SW 1   Clear   90 41     18%   87 29.86        
Jun 19 21:30 SW 3   Clear   91 42     18%   87 29.86        
Jun 19 21:20 SSW 4   Clear   91 42     18%   87 29.85        
Jun 19 21:10 SSW 3   Clear   92 42     18%   88 29.85        
Jun 19 21:00 NW 3   Clear   92 42     18%   88 29.85        
Jun 19 20:50 NNW 4   Clear   93 40     16%   88 29.85        
Jun 19 20:40 NNW 5   Clear   93 39     15%   89 29.84        
Jun 19 20:30 NNW 7   Clear   94 35     13%   89 29.84        
Jun 19 20:20 NNW 6   Clear   94 36     13%   90 29.83        
Jun 19 20:10 N 5   Clear   95 34     12%   90 29.83        
Jun 19 20:00 N 1   Clear   96 33     11%   91 29.82        
Jun 19 19:50 ESE 3   Clear   96 33     11%   91 29.82        
Jun 19 19:40 ENE 5   Clear   96 33     11%   91 29.82        
Jun 19 19:30 ENE 6   Clear   96 33     11%   91 29.82        
Jun 19 19:20 ENE 5   Clear   97        %     29.82        
Jun 19 19:10 ENE 7   Clear   97 34     11%   91 29.82        
Jun 19 19:00 ENE 7   Clear   97 34     11%   92 29.81        
Notice The following observation data may not be complete
Jun 19 18:50     Clear            %              
Jun 19 18:40 E 7   Clear   98 32     10%   92 29.81        
Jun 19 18:30 E 7   Clear   98 33     10%   93 29.81        
Jun 19 18:20 E 6   Clear   99 33     10%   93 29.81        
Jun 19 18:10 ENE 6   Clear   100 33     10%   94 29.81        
Jun 19 18:00 ENE 6   Clear   100 34     10%   94 29.81        
Jun 19 17:50 ENE 7   Clear   100 33     10%   94 29.81        
Jun 19 17:40 ENE 7   Clear   100 34     10%   94 29.81        
Jun 19 17:30 NE 6   Clear   101 32     9%   94 29.82        
Jun 19 17:20 ENE 6   Clear   101 31     9%   94 29.82        
Jun 19 17:10 ENE 7   Clear   101 32     9%   95 29.82        
Jun 19 17:00 NE 3   Clear   102 32     9%   95 29.82        
Jun 19 16:50 ENE 5   Clear   101 32     9%   95 29.82        
Jun 19 16:40 E 5   Clear   101 32     9%   95 29.82        
Jun 19 16:30 NE 8   Clear   101 32     9%   95 29.83        
Jun 19 16:20 ENE 4   Clear   102 32     9%   95 29.83        
Jun 19 16:10 SE 3   Clear   102 29     8%   95 29.83        
Jun 19 16:00 ENE 6   Clear   100 31     9%   94 29.84        
Jun 19 15:50 E 5   Clear   101 32     9%   95 29.84        
Jun 19 15:40 E 7   Clear   100 31     9%   94 29.85        
Jun 19 15:30 NE 6   Clear   101 32     9%   95 29.85        
Jun 19 15:20 ENE 6   Clear   100 31     9%   94 29.85        
Jun 19 15:10 ENE 7   Clear   100 31     9%   94 29.85        
Jun 19 15:00 ENE 6   Clear   100 31     9%   94 29.85        
Jun 19 14:50 NE 7   Clear   100 34     10%   94 29.86        
Jun 19 14:40 ENE 7   Clear   100 34     10%   94 29.86        
Jun 19 14:30 ENE 6   Clear   99 33     10%   93 29.86        
Jun 19 14:20 ENE 7   Clear   99 33     10%   93 29.86        
Jun 19 14:10 ENE 8   Clear   99 35     11%   93 29.87        
Jun 19 14:00 ENE 7   Clear   98 35     11%   93 29.87        
Jun 19 13:50 ENE 6   Clear   99 35     11%   93 29.87        
Jun 19 13:40 ENE 5   Clear   99 33     10%   93 29.88        
Jun 19 13:30 ENE 5   Clear   98 33     10%   93 29.88        
Jun 19 13:20 ENE 6   Clear   98 32     10%   92 29.88        
Jun 19 13:10 ENE 7   Clear   98 34     11%   92 29.88        
Jun 19 13:00 ENE 7   Clear   98 32     10%   92 29.89        
Jun 19 12:50 E 5   Clear   97 34     11%   92 29.89        
Jun 19 12:40 NE 4   Clear   98 32     10%   92 29.89        
Jun 19 12:30 ENE 5   Clear   97 34     11%   91 29.89        
Jun 19 12:20 ENE 7   Clear   97 34     11%   92 29.9        
Jun 19 12:10 ENE 5   Clear   97 32     10%   91 29.9        
Jun 19 12:00 ENE 5   Clear   97 34     11%   91 29.9        
Jun 19 11:50 E 4   Clear   96 33     11%   91 29.9        
Jun 19 11:40 ENE 4   Clear   96 33     11%   91 29.9        
Jun 19 11:30 ENE 5   Clear   95 33     11%   90 29.9        
Jun 19 11:20 NE 4   Clear   96 35     12%   91 29.9        
Jun 19 11:10 NNW 2   Clear   95 34     12%   90 29.91        
Jun 19 11:00 NNW 6   Clear   94 35     13%   89 29.91        
Jun 19 10:40 N 4   Clear   93 35     13%   88 29.91        
Jun 19 10:30 NNW 4   Clear   92 34     13%   88 29.91        
Jun 19 10:20 N 5   Clear   92 36     14%   87 29.91        
Jun 19 10:10 N 3   Clear   91 35     14%   87 29.91        
Jun 19 10:00 N 3   Clear   90 35     14%   86 29.91        
Jun 19 09:50 N 4   Clear   90 34     14%   86 29.91        
Jun 19 09:40 N 2   Clear   90 34     14%   86 29.92        
Jun 19 09:30 NNW 3   Clear   90 34     14%   86 29.92        
Jun 19 09:20 N 2   Clear   88 35     15%   85 29.92        
Jun 19 09:10 N 3   Clear   88 36     16%   84 29.92        
Jun 19 09:00 NNE 2   Clear   87 38     18%   83 29.92        
Jun 19 08:50 N 3   Clear   85 38     19%   82 29.92        
Jun 19 08:40 NNE 2   Clear   86 40     20%   83 29.92        
Jun 19 08:30 Calm   Clear   86 43     22%   83 29.92        
Jun 19 08:20 Calm   Clear   83 43     24%   81 29.92        
Jun 19 08:10 NE 1   Clear   81 45     28%   80 29.92        
Jun 19 08:00 NE 2   Clear   78 47     33%   77 29.92        
Jun 19 07:50 NNE 4   Clear   77 48     36%   76 29.91        
Jun 19 07:40 NNE 4   Clear   81 40     23%   80 29.91        
Jun 19 07:30 SW 1   Clear   81 32     17%   80 29.9        
Jun 19 07:20 SSW 2   Clear   80 37     21%   79 29.9        
Jun 19 07:10 NE 1   Clear   78 37     23%   77 29.9        
Jun 19 07:00 NE 2   Clear   76 41     28%   75 29.9        
Jun 19 06:50 NE 1   Clear   76 45     34%   75 29.89        
Jun 19 06:40 NNE 1   Clear   74 48     41%   72 29.89        
Jun 19 06:30 Calm   Clear   71 49     47%   70 29.89        
Jun 19 06:20 NE 1   Clear   68 49     52%     29.89        
Jun 19 06:10 Calm   Clear   67 49     52%     29.89        
Jun 19 06:00 NE 1   Clear   68 49     52%     29.89        
Notice The following observation data may not be complete
Jun 19 05:50     Clear            %              
Jun 19 05:40 NE 3   Clear   67 50     53%     29.88        
Jun 19 05:30 NE 3   Clear   68 49     52%     29.88        
Jun 19 05:20 NNE 3   Clear   70 47     44%     29.87        
Jun 19 05:10 NNE 1   Clear   69 48     47%     29.87        
Jun 19 05:00 NE 1   Clear   69 50     51%     29.87        
Jun 19 04:50 NE 2   Clear   69 48     47%     29.87        
Jun 19 04:40 NNE 2   Clear   70 46     41%   69 29.87        
Jun 19 04:30 Calm   Clear   71 46     40%   70 29.87        
Jun 19 04:20 Calm   Clear   71 46     40%   70 29.87        
Jun 19 04:10 Calm   Clear   70 46     42%   69 29.87        
Jun 19 04:00 Calm   Clear   70 46     42%   69 29.86        
Jun 19 03:50 Calm   Clear   70 47     44%   69 29.87        
Jun 19 03:40 Calm   Clear   71 48     44%   69 29.87        
Jun 19 03:30 SSW 1   Clear   71 48     45%   70 29.87        
Jun 19 03:20 SSW 2   Clear   70 49     48%     29.87        
Jun 19 03:10 SSW 2   Clear   70 49     48%     29.87        
Jun 19 03:00 SSW 1   Clear   70 49     48%     29.87        
Jun 19 02:50 NE 2   Clear   70 49     48%     29.87        
Jun 19 02:40 Calm   Clear   70 50     49%     29.87        
Jun 19 02:30 NNE 1   Clear   70 50     48%   69 29.87        
Jun 19 02:20 Calm   Clear   71 50     48%   70 29.87        
Jun 19 02:10 NNE 1   Clear   71 50     48%   70 29.87        
Jun 19 02:00 ENE 2   Clear   71 50     47%   70 29.87        
Jun 19 01:50 ENE 2   Clear   71 50     47%   70 29.87        
Jun 19 01:40 ENE 5   Clear   72 50     45%   71 29.87        
Jun 19 01:30 NE 4   Clear   77 44     31%   76 29.86        
Jun 19 01:20 SSW 6   Clear   79        %     29.86        
Jun 19 01:10 SSW 3   Clear   73 43     34%   72 29.86        
Jun 19 01:00 S 1   Clear   72 48     42%   71 29.87        
Jun 19 00:50 Calm   Clear   73 48     42%   72 29.87        
Jun 19 00:40 S 1   Clear   73 48     42%   72 29.87        
Jun 19 00:30 ESE 1   Clear   73 49     43%   72 29.87        
Jun 19 00:20 ENE 1   Clear   73 49     42%   72 29.87        
Jun 19 00:10 E 1   Clear   74 49     42%   73 29.87        
Jun 19 00:00 NE 2   Clear   74 49     41%   73 29.87        
Jun 18 23:50 NNE 2   Clear   75 48     38%   74 29.87        
Jun 18 23:40 NE 1   Clear   76 47     37%   75 29.87        
Jun 18 23:30 NE 1   Clear   76 47     36%   75 29.87        
Jun 18 23:20 NE 2   Clear   76 47     35%   75 29.87        
Jun 18 23:10 Calm   Clear   76 47     36%   75 29.87        
Jun 18 23:00 Calm   Clear   77 47     35%   76 29.87        
Jun 18 22:50 Calm   Clear   77 47     35%   76 29.87        
Jun 18 22:40 NE 1   Clear   78 47     34%   77 29.87        
Jun 18 22:30 NNE 2   Clear   78 47     34%   77 29.88        
Jun 18 22:20 N 3   Clear   78 47     33%   78 29.88        
Jun 18 22:10 NNW 3   Clear   79 47     32%   78 29.88        
Jun 18 22:00 N 3   Clear   79 47     32%   79 29.88        
Jun 18 21:50 NNW 2   Clear   80 46     31%   79 29.87        
Jun 18 21:40 NNW 4   Clear   80 46     30%   79 29.87        
Jun 18 21:30 N 5   Clear   81 46     29%   80 29.87        
Jun 18 21:20 NNW 4   Clear   82 45     27%   80 29.87        
Jun 18 21:10 NNW 3   Clear   82 44     26%   80 29.86        
Jun 18 21:00 NNW 4   Clear   83 45     26%   81 29.86        
Jun 18 20:50 NNW 4   Clear   83 44     25%   81 29.86        
Jun 18 20:40 N 4   Clear   84 44     25%   81 29.86        
Jun 18 20:30 N 4   Clear   84 44     24%   82 29.86        
Jun 18 20:20 N 1   Clear   85 43     23%   82 29.86        
Jun 18 20:10 NW 2   Clear   86 43     22%   83 29.85        
Jun 18 20:00 E 3   Clear   86 40     20%   83 29.85        
Jun 18 19:50 NNW 7   Clear   87 39     19%   83 29.85        
Jun 18 19:40 N 5   Clear   87 38     18%   84 29.85        
Jun 18 19:30 N 7   Clear   88 36     16%   84 29.85        
Jun 18 19:20 NNW 6   Clear   89 35     15%   85 29.85        
Jun 18 19:10 N 6   Clear   89 34     14%   85 29.84        
Jun 18 19:00 N 6   Clear   89 34     14%   85 29.84        
Jun 18 18:50 N 4   Clear   91 33     13%   86 29.84        
Jun 18 18:40 NNW 3   Clear   92 32     12%   88 29.84        
Jun 18 18:30 N 4   Clear   92 32     12%   87 29.84        
Jun 18 18:20 N 5   Clear   92 32     12%   87 29.84        
Jun 18 18:10 N 3   Clear   92 30     11%   87 29.83        
Jun 18 18:00 N 5   Clear   92 30     11%   87 29.83        
Jun 18 17:50 NW 4   Clear   92 30     11%   87 29.84        
Jun 18 17:40 N 5   Clear   92 28     10%   87 29.84        
Jun 18 17:30 N 5   Clear   92 28     10%   87 29.84        
Jun 18 17:20 N 6   Clear   92 28     10%   87 29.85        
Jun 18 17:10 N 7   Clear   93 28     10%   87 29.85        
Jun 18 17:00 NNW 4   Clear   92 25     9%   87 29.85        
Jun 18 16:50 N 5   Clear   92 25     9%   87 29.85        
Jun 18 16:40 N 7   Clear   92 25     9%   87 29.85        
Jun 18 16:30 N 6   Clear   92 25     9%   87 29.86        
Jun 18 16:20 N 7   Clear   92 28     10%   87 29.86        
Jun 18 16:10 N 6   Clear   92 28     10%   87 29.86        
Jun 18 16:00 NNE 5   Clear   92 28     10%   87 29.86        
Jun 18 15:50 N 7   Clear   92 28     10%   87 29.87        
Jun 18 15:40 N 5   Clear   92 28     10%   87 29.87        
Jun 18 15:30 NNW 5   Clear   92 30     11%   87 29.88        
Jun 18 15:20 N 5   Clear   91 29     11%   86 29.88        
Jun 18 15:10 N 5   Clear   91 29     11%   86 29.88        
Jun 18 15:00 N 6   Clear   91 29     11%   87 29.89        
Jun 18 14:50 N 5   Clear   91 31     12%   86 29.89        
Jun 18 14:40 N 5   Clear   90 31     12%   86 29.89        
Jun 18 14:30 NNW 6   Clear   91 31     12%   86 29.89        
Jun 18 14:20 N 6   Clear   90 32     13%   86 29.89        
Jun 18 14:10 N 6   Clear   89 32     13%   85 29.9        
Jun 18 14:00 NNW 5   Clear   89 32     13%   85 29.9        
Notice The following observation data may not be complete
Jun 18 13:50     Clear            %              
Jun 18 13:40 N 5   Clear   89 33     14%   85 29.9        
Jun 18 13:30 N 7   Clear   88 33     14%   84 29.9        
Jun 18 13:20 NNW 6   Clear   88 32     14%   84 29.91        
Jun 18 13:10 N 7   Clear   88 34     15%   84 29.91        
Jun 18 13:00 N 5   Clear   87 35     16%   83 29.91        
Jun 18 12:50 N 4   Clear   86 36     17%   83 29.92        
Jun 18 12:40 NNE 6   Clear   85 37     18%   82 29.92        
Jun 18 12:30 N 5   Clear   85 38     19%   82 29.92        
Jun 18 12:20 N 3   Clear   85 38     19%   82 29.93        
Jun 18 12:10 N 5   Clear   84 39     20%   82 29.93        
Jun 18 12:00 N 5   Clear   85 39     20%   82 29.94        
Jun 18 11:50 N 6   Clear   83 39     21%   81 29.94        
Jun 18 11:40 NNW 4   Clear   83 39     21%   80 29.94        
Jun 18 11:30 N 6   Clear   82 40     22%   80 29.94        
Jun 18 11:20 N 6   Clear   81 40     23%   80 29.94        
Jun 18 11:10 N 6   Clear   81 40     23%   80 29.94        
Jun 18 11:00 N 5   Clear   81 41     24%   80 29.94        
Notice The following observation data may not be complete
Jun 18 10:50     Clear            %              
Jun 18 10:40 N 5   Clear   79 42     27%   78 29.94        
Jun 18 10:30 N 5   Clear   79 42     27%   78 29.94        
May 15 09:50 N 5   Clear   76 44     31%   75 29.9        
May 15 09:20 N 3   Clear   75 43     32%   74 29.9        
May 15 05:00 Calm   Clear   63 46     55%     29.82        
May 14 23:50 NE 3   Clear   70 45     40%     29.82        
May 14 18:50 N 5   Clear   81 42     25%   80 29.77        
May 14 18:00 NNW 8   Clear   85 38     19%   82 29.77        
May 14 16:20 N 4   Clear   86        %     29.79        
May 14 15:50 NNW 6   Clear   85 27     12%   82 29.79        
May 14 14:30 NE 5   Clear   85 28     13%   81 29.82        
May 14 10:40 N 6   Clear   77 41     27%   76 29.87        
May 14 09:30 N 4   Clear   75 39     27%   73 29.86        
May 14 09:10 N 4   Clear   73 40     30%   72 29.86        
May 14 09:00 N 4   Clear   72 41     33%   71 29.86        
May 14 06:30 NE 3   Clear   59 43     56%     29.82        
May 14 03:30 NNE 3   Clear   62 46     56%     29.81        
May 14 00:40 Calm   Clear   65 44     47%     29.82        
May 13 18:30 NNW 7   Clear   78 40     26%   77 29.8        
May 13 16:50 NNW 6   Clear   81 39     23%   79 29.81        
May 13 16:00 NNW 6   Clear   79 40     25%   77 29.82        
May 13 12:40 NE 7   Clear   77 40     27%   75          
May 13 07:40 NNW 3   Clear   65 43     44%     29.86        
Notice The following observation data may not be complete
May 13 07:20     Clear            %              
May 13 07:10 NNE 3   Clear   66 43     43%     29.85        
May 13 03:00 Calm   Clear   61 42     50%     29.8        
May 13 02:10 NNE 3   Clear   63 40     44%     29.79        
May 12 16:00 NNW 7   Clear   79 40     25%   78 29.76        
May 12 12:10 NNW 7   Clear   75 41     29%   74 29.81        
May 12 11:40 N 5   Clear   74 42     31%   73 29.82        
May 12 00:40     Clear   66 34     31%     29.65        
May 11 23:10 W 7   Clear   65 41     40%     29.65        
May 11 22:30 WSW 12   Clear   67 36     32%     29.66        
May 11 22:00     Clear   66 38     36%              
May 11 18:00     Clear   81 37     21%   79 29.59        
Notice The following observation data may not be complete
May 11 11:20     Clear            %